Time,TemperatureF,DewpointF,PressureIn,WindDirection,WindDirectionDegrees,WindSpeedMPH,WindSpeedGustMPH,Humidity,HourlyPrecipIn,Conditions,Clouds,dailyrainin,SoftwareType,DateUTC
2013-03-14 00:02:00,28.0,19.0,30.34,SSW,202,3.0,3.0,68,-99.99,,,-99.99,,2013-03-14 05:02:00,
2013-03-14 00:12:00,28.0,20.0,30.34,SSW,202,2.0,2.0,72,-99.99,,,-99.99,,2013-03-14 05:12:00,
2013-03-14 00:22:00,29.0,20.0,30.34,SSW,202,0.0,-999.0,68,-99.99,,,-99.99,,2013-03-14 05:22:00,
2013-03-14 00:33:00,29.0,18.0,30.33,South,180,0.0,-999.0,64,-99.99,,,-99.99,,2013-03-14 05:33:00,
2013-03-14 00:42:00,29.0,20.0,30.33,SE,135,2.0,3.0,70,-99.99,,,-99.99,,2013-03-14 05:42:00,
2013-03-14 00:52:00,28.0,20.0,30.32,SE,135,2.0,3.0,74,-99.99,,,-99.99,,2013-03-14 05:52:00,
2013-03-14 01:02:00,28.0,20.0,30.32,SE,135,3.0,4.0,74,-99.99,,,-99.99,,2013-03-14 06:02:00,
2013-03-14 01:22:00,27.0,21.0,30.32,SSE,157,2.0,3.0,76,-99.99,,,-99.99,,2013-03-14 06:22:00,
2013-03-14 01:32:00,27.0,21.0,30.31,SE,135,3.0,3.0,75,-99.99,,,-99.99,,2013-03-14 06:32:00,
2013-03-14 01:42:00,27.0,21.0,30.32,SE,135,0.0,-999.0,75,-99.99,,,-99.99,,2013-03-14 06:42:00,
2013-03-14 01:52:00,27.0,19.0,30.31,SE,135,2.0,3.0,70,-99.99,,,-99.99,,2013-03-14 06:52:00,
2013-03-14 02:02:00,27.0,20.0,30.31,SE,135,3.0,4.0,74,-99.99,,,-99.99,,2013-03-14 07:02:00,
2013-03-14 02:12:00,27.0,20.0,30.31,SSE,157,3.0,4.0,76,-99.99,,,-99.99,,2013-03-14 07:12:00,
2013-03-14 02:22:00,26.0,20.0,30.31,SSE,157,2.0,3.0,78,-99.99,,,-99.99,,2013-03-14 07:22:00,
2013-03-14 02:32:00,26.0,20.0,30.31,SSE,157,3.0,3.0,78,-99.99,,,-99.99,,2013-03-14 07:32:00,
2013-03-14 02:42:00,25.0,19.0,30.32,South,180,1.0,3.0,79,-99.99,,,-99.99,,2013-03-14 07:42:00,
2013-03-14 02:52:00,25.0,20.0,30.31,SSE,157,1.0,2.0,82,-99.99,,,-99.99,,2013-03-14 07:52:00,
2013-03-14 03:02:00,25.0,21.0,30.31,SSE,157,3.0,4.0,82,-99.99,,,-99.99,,2013-03-14 08:02:00,
2013-03-14 03:12:00,26.0,21.0,30.30,SSE,157,3.0,4.0,82,-99.99,,,-99.99,,2013-03-14 08:12:00,
2013-03-14 03:21:00,25.0,21.0,30.30,SSE,157,3.0,4.0,83,-99.99,,,-99.99,,2013-03-14 08:21:00,
2013-03-14 03:32:00,25.0,21.0,30.30,SSE,157,3.0,4.0,82,-99.99,,,-99.99,,2013-03-14 08:32:00,
2013-03-14 03:41:00,25.0,20.0,30.28,SSE,157,4.0,5.0,84,-99.99,,,-99.99,,2013-03-14 08:41:00,
2013-03-14 03:51:00,25.0,20.0,30.27,SSE,157,5.0,6.0,81,-99.99,,,-99.99,,2013-03-14 08:51:00,
2013-03-14 04:01:00,27.0,20.0,30.27,SSE,157,5.0,6.0,77,-99.99,,,-99.99,,2013-03-14 09:01:00,
2013-03-14 04:12:00,26.0,20.0,30.26,SE,135,4.0,5.0,79,-99.99,,,-99.99,,2013-03-14 09:12:00,
2013-03-14 04:22:00,26.0,20.0,30.26,SSE,157,4.0,4.0,79,-99.99,,,-99.99,,2013-03-14 09:22:00,
2013-03-14 04:32:00,26.0,20.0,30.27,SSE,157,3.0,4.0,79,-99.99,,,-99.99,,2013-03-14 09:32:00,
2013-03-14 04:42:00,25.0,20.0,30.27,South,180,2.0,3.0,78,-99.99,,,-99.99,,2013-03-14 09:42:00,
2013-03-14 04:52:00,26.0,21.0,30.26,SSE,157,2.0,3.0,81,-99.99,,,-99.99,,2013-03-14 09:52:00,
2013-03-14 05:02:00,27.0,21.0,30.26,SSE,157,3.0,4.0,80,-99.99,,,-99.99,,2013-03-14 10:02:00,
2013-03-14 05:12:00,26.0,21.0,30.26,SSE,157,4.0,4.0,81,-99.99,,,-99.99,,2013-03-14 10:12:00,
2013-03-14 05:22:00,26.0,21.0,30.26,SSE,157,4.0,5.0,83,-99.99,,,-99.99,,2013-03-14 10:22:00,
2013-03-14 05:32:00,27.0,22.0,30.26,SSE,157,4.0,5.0,81,-99.99,,,-99.99,,2013-03-14 10:32:00,
2013-03-14 05:42:00,27.0,22.0,30.25,SSE,157,5.0,6.0,79,-99.99,,,-99.99,,2013-03-14 10:42:00,
2013-03-14 05:52:00,27.0,22.0,30.25,SSE,157,4.0,5.0,78,-99.99,,,-99.99,,2013-03-14 10:52:00,
2013-03-14 06:02:00,28.0,22.0,30.24,SSE,157,5.0,7.0,75,-99.99,,,-99.99,,2013-03-14 11:02:00,
2013-03-14 06:12:00,28.0,22.0,30.24,SSE,157,5.0,6.0,76,-99.99,,,-99.99,,2013-03-14 11:12:00,
2013-03-14 06:22:00,29.0,21.0,30.24,SSE,157,5.0,7.0,74,-99.99,,,-99.99,,2013-03-14 11:22:00,
2013-03-14 06:32:00,29.0,22.0,30.24,SSE,157,5.0,6.0,74,-99.99,,,-99.99,,2013-03-14 11:32:00,
2013-03-14 06:42:00,30.0,21.0,30.24,SSE,157,6.0,8.0,69,-99.99,,,-99.99,,2013-03-14 11:42:00,
2013-03-14 06:52:00,30.0,21.0,30.23,SSE,157,6.0,8.0,69,-99.99,,,-99.99,,2013-03-14 11:52:00,
2013-03-14 07:02:00,31.0,21.0,30.24,SSE,157,5.0,7.0,66,-99.99,,,-99.99,,2013-03-14 12:02:00,
2013-03-14 07:12:00,31.0,21.0,30.24,South,180,6.0,9.0,66,-99.99,,,-99.99,,2013-03-14 12:12:00,
2013-03-14 07:22:00,31.0,22.0,30.24,SSE,157,5.0,9.0,68,-99.99,,,-99.99,,2013-03-14 12:22:00,
2013-03-14 07:33:00,32.0,21.0,30.24,SSE,157,5.0,7.0,65,-99.99,,,-99.99,,2013-03-14 12:33:00,
2013-03-14 07:42:00,32.0,21.0,30.23,SSE,157,6.0,8.0,66,-99.99,,,-99.99,,2013-03-14 12:42:00,
2013-03-14 07:52:00,31.0,22.0,30.23,SSE,157,5.0,7.0,67,-99.99,,,-99.99,,2013-03-14 12:52:00,
2013-03-14 08:02:00,31.0,22.0,30.24,SE,135,6.0,7.0,67,-99.99,,,-99.99,,2013-03-14 13:02:00,
2013-03-14 08:12:00,32.0,22.0,30.24,SSE,157,6.0,8.0,68,-99.99,,,-99.99,,2013-03-14 13:12:00,
2013-03-14 08:22:00,32.0,22.0,30.22,SSE,157,6.0,8.0,67,-99.99,,,-99.99,,2013-03-14 13:22:00,
2013-03-14 08:32:00,32.0,23.0,30.23,SSE,157,6.0,8.0,67,-99.99,,,-99.99,,2013-03-14 13:32:00,
2013-03-14 08:42:00,33.0,22.0,30.23,SSE,157,7.0,10.0,63,-99.99,,,-99.99,,2013-03-14 13:42:00,
2013-03-14 08:52:00,34.0,21.0,30.23,SSE,157,7.0,10.0,60,-99.99,,,-99.99,,2013-03-14 13:52:00,
2013-03-14 09:02:00,34.0,21.0,30.23,SSE,157,6.0,11.0,59,-99.99,,,-99.99,,2013-03-14 14:02:00,
2013-03-14 09:12:00,34.0,21.0,30.23,SSE,157,7.0,11.0,57,-99.99,,,-99.99,,2013-03-14 14:12:00,
2013-03-14 09:22:00,34.0,22.0,30.21,SSE,157,8.0,12.0,59,-99.99,,,-99.99,,2013-03-14 14:22:00,
2013-03-14 09:32:00,35.0,21.0,30.21,SSE,157,9.0,14.0,56,-99.99,,,-99.99,,2013-03-14 14:32:00,
2013-03-14 09:42:00,35.0,21.0,30.20,SSE,157,10.0,13.0,55,-99.99,,,-99.99,,2013-03-14 14:42:00,
2013-03-14 09:52:00,36.0,21.0,30.22,SSE,157,10.0,14.0,55,-99.99,,,-99.99,,2013-03-14 14:52:00,
2013-03-14 10:02:00,36.0,21.0,30.20,SSE,157,8.0,14.0,56,-99.99,,,-99.99,,2013-03-14 15:02:00,
2013-03-14 10:12:00,37.0,22.0,30.20,South,180,7.0,13.0,54,-99.99,,,-99.99,,2013-03-14 15:12:00,
2013-03-14 10:22:00,38.0,22.0,30.20,South,180,9.0,14.0,53,-99.99,,,-99.99,,2013-03-14 15:22:00,
2013-03-14 10:32:00,37.0,22.0,30.19,South,180,10.0,14.0,53,-99.99,,,-99.99,,2013-03-14 15:32:00,
2013-03-14 10:42:00,39.0,20.0,30.19,SSE,157,8.0,13.0,48,-99.99,,,-99.99,,2013-03-14 15:42:00,
2013-03-14 10:52:00,39.0,22.0,30.17,SSW,202,12.0,16.0,50,-99.99,,,-99.99,,2013-03-14 15:52:00,
2013-03-14 11:02:00,40.0,22.0,30.17,SSE,157,10.0,16.0,48,-99.99,,,-99.99,,2013-03-14 16:02:00,
2013-03-14 11:12:00,41.0,22.0,30.16,SSE,157,11.0,14.0,46,-99.99,,,-99.99,,2013-03-14 16:12:00,
2013-03-14 11:22:00,41.0,22.0,30.16,SSE,157,10.0,16.0,47,-99.99,,,-99.99,,2013-03-14 16:22:00,
2013-03-14 11:32:00,42.0,23.0,30.15,South,180,11.0,15.0,46,-99.99,,,-99.99,,2013-03-14 16:32:00,
2013-03-14 11:42:00,41.0,23.0,30.15,SSE,157,10.0,14.0,49,-99.99,,,-99.99,,2013-03-14 16:42:00,
2013-03-14 11:52:00,43.0,23.0,30.15,South,180,7.0,11.0,47,-99.99,,,-99.99,,2013-03-14 16:52:00,
2013-03-14 12:02:00,44.0,24.0,30.13,South,180,9.0,13.0,45,-99.99,,,-99.99,,2013-03-14 17:02:00,
2013-03-14 12:12:00,43.0,23.0,30.13,SSW,202,11.0,17.0,44,-99.99,,,-99.99,,2013-03-14 17:12:00,
2013-03-14 12:23:00,45.0,24.0,30.13,SSE,157,8.0,13.0,43,-99.99,,,-99.99,,2013-03-14 17:23:00,
2013-03-14 12:32:00,46.0,24.0,30.14,South,180,6.0,10.0,42,-99.99,,,-99.99,,2013-03-14 17:32:00,
2013-03-14 12:42:00,47.0,26.0,30.13,SSW,202,7.0,11.0,44,-99.99,,,-99.99,,2013-03-14 17:42:00,
2013-03-14 12:52:00,49.0,28.0,30.11,SSE,157,10.0,14.0,44,-99.99,,,-99.99,,2013-03-14 17:52:00,
2013-03-14 13:02:00,50.0,25.0,30.11,SW,225,9.0,14.0,37,-99.99,,,-99.99,,2013-03-14 18:02:00,
2013-03-14 13:12:00,52.0,25.0,30.11,SSW,202,9.0,13.0,36,-99.99,,,-99.99,,2013-03-14 18:12:00,
2013-03-14 13:22:00,52.0,26.0,30.10,South,180,8.0,14.0,37,-99.99,,,-99.99,,2013-03-14 18:22:00,
2013-03-14 13:32:00,53.0,26.0,30.10,SSW,202,10.0,14.0,36,-99.99,,,-99.99,,2013-03-14 18:32:00,
2013-03-14 13:42:00,54.0,29.0,30.10,SSW,202,9.0,13.0,38,-99.99,,,-99.99,,2013-03-14 18:42:00,
2013-03-14 13:52:00,53.0,26.0,30.09,SW,225,11.0,17.0,35,-99.99,,,-99.99,,2013-03-14 18:52:00,
2013-03-14 14:02:00,53.0,27.0,30.09,SW,225,10.0,18.0,36,-99.99,,,-99.99,,2013-03-14 19:02:00,
2013-03-14 14:12:00,55.0,28.0,30.08,SW,225,11.0,15.0,35,-99.99,,,-99.99,,2013-03-14 19:12:00,
2013-03-14 14:32:00,57.0,28.0,30.07,South,180,9.0,15.0,33,-99.99,,,-99.99,,2013-03-14 19:32:00,
2013-03-14 14:42:00,58.0,29.0,30.06,SSW,202,11.0,16.0,33,-99.99,,,-99.99,,2013-03-14 19:42:00,
2013-03-14 14:52:00,59.0,29.0,30.06,SW,225,11.0,17.0,32,-99.99,,,-99.99,,2013-03-14 19:52:00,
2013-03-14 15:02:00,59.0,29.0,30.05,WSW,247,10.0,15.0,31,-99.99,,,-99.99,,2013-03-14 20:02:00,
2013-03-14 15:11:00,61.0,33.0,30.05,SSW,202,10.0,17.0,35,-99.99,,,-99.99,,2013-03-14 20:11:00,
2013-03-14 15:22:00,61.0,31.0,30.04,SW,225,9.0,16.0,32,-99.99,,,-99.99,,2013-03-14 20:22:00,
2013-03-14 15:32:00,61.0,30.0,30.04,WSW,247,9.0,13.0,31,-99.99,,,-99.99,,2013-03-14 20:32:00,
2013-03-14 15:42:00,62.0,31.0,30.04,SSW,202,7.0,13.0,31,-99.99,,,-99.99,,2013-03-14 20:42:00,
2013-03-14 15:52:00,62.0,31.0,30.04,SSW,202,7.0,12.0,32,-99.99,,,-99.99,,2013-03-14 20:52:00,
2013-03-14 16:02:00,63.0,32.0,30.04,SW,225,8.0,12.0,31,-99.99,,,-99.99,,2013-03-14 21:02:00,
2013-03-14 16:12:00,63.0,32.0,30.04,WSW,247,9.0,12.0,32,-99.99,,,-99.99,,2013-03-14 21:12:00,
2013-03-14 16:22:00,63.0,32.0,30.04,SSW,202,7.0,10.0,30,-99.99,,,-99.99,,2013-03-14 21:22:00,
2013-03-14 16:32:00,63.0,34.0,30.04,SW,225,8.0,15.0,33,-99.99,,,-99.99,,2013-03-14 21:32:00,
2013-03-14 16:43:00,64.0,34.0,30.04,SW,225,8.0,12.0,33,-99.99,,,-99.99,,2013-03-14 21:43:00,
2013-03-14 16:52:00,64.0,34.0,30.03,West,270,7.0,10.0,32,-99.99,,,-99.99,,2013-03-14 21:52:00,
2013-03-14 17:03:00,64.0,34.0,30.03,WSW,247,8.0,12.0,32,-99.99,,,-99.99,,2013-03-14 22:03:00,
2013-03-14 17:12:00,65.0,34.0,30.03,SW,225,7.0,11.0,31,-99.99,,,-99.99,,2013-03-14 22:12:00,
2013-03-14 17:23:00,65.0,34.0,30.03,SW,225,7.0,9.0,31,-99.99,,,-99.99,,2013-03-14 22:23:00,
2013-03-14 17:33:00,65.0,34.0,30.02,SW,225,4.0,8.0,31,-99.99,,,-99.99,,2013-03-14 22:33:00,
2013-03-14 17:42:00,66.0,36.0,30.02,WNW,292,4.0,6.0,33,-99.99,,,-99.99,,2013-03-14 22:42:00,
2013-03-14 17:52:00,65.0,37.0,30.02,WSW,247,10.0,15.0,36,-99.99,,,-99.99,,2013-03-14 22:52:00,
2013-03-14 18:02:00,65.0,39.0,30.02,WSW,247,8.0,13.0,38,-99.99,,,-99.99,,2013-03-14 23:02:00,
2013-03-14 18:12:00,64.0,38.0,30.02,West,270,9.0,13.0,38,-99.99,,,-99.99,,2013-03-14 23:12:00,
2013-03-14 18:22:00,65.0,38.0,30.03,WSW,247,6.0,11.0,38,-99.99,,,-99.99,,2013-03-14 23:22:00,
2013-03-14 18:33:00,64.0,39.0,30.03,WSW,247,7.0,10.0,40,-99.99,,,-99.99,,2013-03-14 23:33:00,
2013-03-14 18:42:00,64.0,39.0,30.03,West,270,6.0,8.0,39,-99.99,,,-99.99,,2013-03-14 23:42:00,
2013-03-14 18:53:00,63.0,39.0,30.03,West,270,4.0,8.0,40,-99.99,,,-99.99,,2013-03-14 23:53:00,
2013-03-14 19:02:00,63.0,39.0,30.03,WSW,247,5.0,9.0,41,-99.99,,,-99.99,,2013-03-15 00:02:00,
2013-03-14 19:12:00,61.0,39.0,30.03,West,270,3.0,5.0,44,-99.99,,,-99.99,,2013-03-15 00:12:00,
2013-03-14 19:22:00,59.0,40.0,30.03,West,270,2.0,3.0,48,-99.99,,,-99.99,,2013-03-15 00:22:00,
2013-03-14 19:32:00,58.0,41.0,30.04,WNW,292,2.0,3.0,52,-99.99,,,-99.99,,2013-03-15 00:32:00,
2013-03-14 19:42:00,58.0,40.0,30.04,NNW,337,2.0,3.0,52,-99.99,,,-99.99,,2013-03-15 00:42:00,
2013-03-14 19:52:00,56.0,40.0,30.04,East,90,3.0,4.0,54,-99.99,,,-99.99,,2013-03-15 00:52:00,
2013-03-14 20:02:00,57.0,40.0,30.04,East,90,3.0,4.0,53,-99.99,,,-99.99,,2013-03-15 01:02:00,
2013-03-14 20:11:00,57.0,40.0,30.04,East,90,3.0,3.0,53,-99.99,,,-99.99,,2013-03-15 01:11:00,
2013-03-14 20:22:00,57.0,40.0,30.04,East,90,2.0,3.0,54,-99.99,,,-99.99,,2013-03-15 01:22:00,
2013-03-14 20:32:00,56.0,40.0,30.04,East,90,0.0,-999.0,55,-99.99,,,-99.99,,2013-03-15 01:32:00,
2013-03-14 20:42:00,54.0,40.0,30.04,East,90,3.0,3.0,59,-99.99,,,-99.99,,2013-03-15 01:42:00,
2013-03-14 20:52:00,54.0,40.0,30.04,East,90,4.0,5.0,58,-99.99,,,-99.99,,2013-03-15 01:52:00,
2013-03-14 21:02:00,54.0,40.0,30.04,NNE,22,3.0,4.0,60,-99.99,,,-99.99,,2013-03-15 02:02:00,
2013-03-14 21:12:00,54.0,40.0,30.05,NNE,22,3.0,4.0,59,-99.99,,,-99.99,,2013-03-15 02:12:00,
2013-03-14 21:22:00,53.0,40.0,30.04,NNE,22,3.0,3.0,61,-99.99,,,-99.99,,2013-03-15 02:22:00,
2013-03-14 21:32:00,53.0,40.0,30.04,NE,45,2.0,2.0,61,-99.99,,,-99.99,,2013-03-15 02:32:00,
2013-03-14 21:42:00,53.0,40.0,30.05,ENE,67,2.0,3.0,61,-99.99,,,-99.99,,2013-03-15 02:42:00,
2013-03-14 21:52:00,52.0,39.0,30.05,SE,135,4.0,5.0,62,-99.99,,,-99.99,,2013-03-15 02:52:00,
2013-03-14 22:02:00,52.0,39.0,30.04,SE,135,3.0,4.0,62,-99.99,,,-99.99,,2013-03-15 03:02:00,
2013-03-14 22:12:00,50.0,39.0,30.05,SE,135,3.0,4.0,66,-99.99,,,-99.99,,2013-03-15 03:12:00,
2013-03-14 22:22:00,51.0,38.0,30.04,SE,135,3.0,3.0,61,-99.99,,,-99.99,,2013-03-15 03:22:00,
2013-03-14 22:32:00,50.0,36.0,30.05,SE,135,3.0,3.0,58,-99.99,,,-99.99,,2013-03-15 03:32:00,
2013-03-14 22:42:00,50.0,34.0,30.05,SE,135,1.0,2.0,54,-99.99,,,-99.99,,2013-03-15 03:42:00,
2013-03-14 22:52:00,50.0,33.0,30.05,SSE,157,2.0,3.0,51,-99.99,,,-99.99,,2013-03-15 03:52:00,
2013-03-14 23:03:00,50.0,32.0,30.04,SSE,157,3.0,4.0,50,-99.99,,,-99.99,,2013-03-15 04:03:00,
2013-03-14 23:12:00,50.0,32.0,30.05,SSE,157,3.0,4.0,51,-99.99,,,-99.99,,2013-03-15 04:12:00,
2013-03-14 23:22:00,49.0,32.0,30.05,SE,135,3.0,3.0,51,-99.99,,,-99.99,,2013-03-15 04:22:00,
2013-03-14 23:32:00,45.0,33.0,30.05,NE,45,3.0,4.0,64,-99.99,,,-99.99,,2013-03-15 04:32:00,
2013-03-14 23:42:00,42.0,33.0,30.05,NE,45,3.0,4.0,71,-99.99,,,-99.99,,2013-03-15 04:42:00,
2013-03-14 23:52:00,43.0,33.0,30.05,ENE,67,3.0,3.0,67,-99.99,,,-99.99,,2013-03-15 04:52:00,